Weather in Otorma

Russia / Penza Oblast     53°32′17″N   42°30′06″E
temp.,
°C
wind,
m/s
gust,
m/s
humid.,
%
clouds,
%
prec.,
mm/h
press.,
hPa
HPBL,
m
22 may, sun
sun2200:00+6ese2262100 0.0 100621
03:00+7ese2261100 0.0 100435
06:00+7ene2376100 0.0 1001135
09:00+10ene5566100 0.0 1000637
12:00+12ene545867 0.1 10001510
15:00+11ne7766100 0.3 999903
18:00+10ne4769100 0.1 999675
21:00+6ne511755 0.1 1001369
23 may, mon
mon2300:00+3nne410765 0.0 1002339
03:000n47835 0.0 1003189
06:00+1n48705 0.0 1004366
09:00+6nnw565392 0.0 10041421
12:00+7nw6654100 0.0 10041664
15:00+7nw5756100 0.1 10051598
18:00+7w366262 0.0 10051054
21:00+4sw487971 0.0 1005141
24 may, tue
tue2400:00+4wsw5128478 0.0 1004249
03:00+2wsw4109044 0.0 1004177
06:00+5w51170100 0.0 1004432
09:00+9wnw4748100 0.0 10051230
12:00+10wnw6853100 0.0 10051879
15:00+7nw477494 0.6 10071044
18:00+7nw4674100 0.5 1008989
21:00+5nnw3685100 0.8 1010139
25 may, wed
wed2500:00+2nnw34935 0.0 101168
03:000nnw34945 0.0 101361
06:00+2nnw34835 0.0 1014190
09:00+7nw346037 0.0 10141244
12:00+8nw4457100 0.1 10151250
15:00+9nw4557100 0.1 10151388
18:00+8nw346530 0.0 1016992
21:00+4w347954 0.1 101748
26 may, thu
thu2600:00+3w358475 0.0 101687
03:00+2wsw358675 0.0 101692
06:00+5sw357885 0.0 1015169
09:00+10sw456410 0.0 1013767
12:00+12ssw377391 0.0 1011826
15:00+17wsw587048 0.9 10081157
18:00+13wsw51292100 2.5 1006510
21:00+12sw61387100 3.0 1004501